Location: Winthrop
(48.4780°N, 120.1850°W)
Time: 16:51:07
(UTC-07:00)

Explorer 7 - Pass Details

Date: 03 February 2023
Orbit: 478 x 657 km, 50.3° (Epoch: 30 March)

Event Time Altitude Azimuth Distance (km) Brightness Sun altitude
Rises 17:54:47 0° 287° (WNW) 2,880 11.6 -9.0°
Reaches altitude 10° 17:57:19 10° 275° (W) 2,001 11.0 -9.4°
Maximum altitude 18:01:11 27° 219° (SW) 1,238 9.3 -10.0°
Drops below altitude 10° 18:05:09 10° 162° (SSE) 2,055 9.7 -10.6°
Sets 18:07:48 0° 150° (SSE) 2,974 10.4 -11.1°
